Tracking 18665 objects as of 24-June-2017
HD Live streaming from Space Station
objects crossing your sky now

USA 121

Track USA 121 now!
10-day predictions
USA 121 is classified as:


NORAD ID: 23908
Int'l Code: 1996-029C
Perigee: 661.9 km
Apogee: 1,564.5 km
Inclination: 63.4 °
Period: 107.4 minutes
Semi major axis: 7484 km
RCS: Unknown
Launch date: May 12, 1996
Source: United States (US)
Launch site: AIR FORCE WESTERN TEST RANGE (AFWTR)
Your satellite tracking list
Your tracking list is empty





NASA's NSSDC Master Catalog

Two Line Element Set (TLE):
1 23908U 96029C   17151.93673283 0.00000000  00000-0  00000-0 0    07
2 23908  63.3700  95.3502 0603000  12.3188 347.6812 13.40855335    07
Source of the keplerian elements: McCants